sat.trackr.live / text

‹ back to catalog

UNKNOWN

NORAD 81640

UNKNOWN UNKNOWN UNKNOWN

§ Identity

Operator
Country
Launch date
Launch site
Launch vehicle
Mass (kg)
RCS (m²)

External: N2YO · Heavens-Above

§ Orbital elements

Epoch: 2026-05-24T01:06:06.733728Z

Period
114.53 min
Inclination
65.8210°
Eccentricity
0.0983697
Mean motion
12.57330819 rev/d
Perigee alt
665.5 km
Apogee alt
2,202.5 km
Semi-major
7,812.1 km
B*
1.8419e-4
RAAN
160.0854°
Arg perigee
11.4389°
Mean anomaly
350.7299°
Rev number
53,048

§ Raw data

UNKNOWN1 81640U          26144.04591127  .00000146  00000+0  18419-3 0  99912 81640  65.8210 160.0854 0983697  11.4389 350.7299 12.57330819530489

JSON: /api/v1/satellites/81640 · /tle

For live sub-satellite position, see the globe view (requires WebGL).

§ Visibility from observer

Set your observer location to see the next 7 days of passes ≥ 10°. The values pass through the URL so the page stays shareable.

No JS? Fill the form by hand. The geolocation button needs JavaScript.